Location: Lombard
(41.8800°N, 88.0080°W)
Time: 03:32:52
(UTC-05:00)

BEESAT - Pass Details

Date: 25 May 2022
Orbit: 698 x 708 km, 98.6° (Epoch: 26 June)

Event Time Altitude Azimuth Distance (km) Brightness Sun altitude
Rises 21:24:07 0° 11° (N) 3,092 ? -11.2°
Reaches altitude 10° 21:26:23 10° 9° (N) 2,170 ? -11.5°
Maximum altitude 21:31:06 71° 286° (WNW) 740 ? -12.2°
Drops below altitude 10° 21:35:48 10° 203° (SSW) 2,154 ? -12.8°
Sets 21:38:02 0° 201° (SSW) 3,067 ? -13.1°
